{"data":{"norad_id":59476,"intl_designator":"2024-068X","name":"STARLINK-31515","alt_names":[],"object_type":"PAYLOAD","status":"ACTIVE","operator":null,"country":"US","launch_date":"2024-04-10","launch_site_code":"AFETR","launch_vehicle":null,"mission":null,"orbit_class":"UNKNOWN","rcs_meters":null,"size_class":null,"mass_kg":null,"dimensions":null,"purposes":["comms"],"wikipedia_slug":null,"has_3d_model":false,"image_url":null,"decayed_at":null,"tle_current":{"epoch":"2026-05-25T04:42:08.646624Z","epoch_age_seconds":54144,"freshness":"FRESH","line1":"1 59476U 24068X   26145.19593341 -.00001118  00000+0 -31113-4 0  9999","line2":"2 59476  43.0026 322.4220 0001405 271.7146  88.3545 15.27575656120220","mean_motion":15.27575656,"eccentricity":0.0001405,"inclination_deg":43.0026,"raan_deg":322.422,"arg_perigee_deg":271.7146,"mean_anomaly_deg":88.3545,"bstar":-3.1113e-5,"rev_number":12022,"period_min":94.267016782048,"perigee_km":482.09810509517,"apogee_km":484.02610204328,"semimajor_km":6861.1991035692,"source":"CELESTRAK","updated_at":"2026-05-25T13:38:18.952007Z"}}}